Regional Weather Roundup
Issued by NWS Wakefield, VA

Home | Current Version | Previous Version | Text Only | Print | Product List | Glossary Off
Versions: 1 2 3 4 5 6 7 8 9 10 11 12 13 14 15 16 17 18 19 20 21 22 23 24 25 26 27 28 29 30 31 32 33 34 35 36 37 38 39 40 41 42 43 44 45 46 47 48 49 50

000
ASUS41 KAKQ 230515
RWRAKQ

REGIONAL WEATHER ROUNDUP
NATIONAL WEATHER SERVICE WAKEFIELD VA
1200 AM EST THU FEB 23 2017

Note: "fair" indicates few or no clouds below 12,000 feet with no
significant weather and/or obstructions to visibility. * = Denotes
station may not report precipitation (e.g., rain,snow,etc.),
thunder or fog.

VAZ042-051-052>054-056-230600-
NORTHERN VIRGINIA

CITY           SKY/WX    TMP DP  RH WIND       PRES   REMARKS
WASH NATIONAL  CLOUDY    54  52  93 S8        29.91S
DULLES         CLOUDY    55  51  86 S6        29.89S
FORT BELVOIR   CLOUDY    52  49  89 CALM      29.90F
QUANTICO       CLOUDY    51  51 100 S3        29.91F
FREDERICKSBRG* CLOUDY    56  56  99 S8        29.90S
STAFFORD*      CLOUDY    55  54  99 CALM      29.94S
WARRENTON      CLOUDY    56  51  84 S3        29.89S
CULPEPER*      CLOUDY    56  55  94 S3        29.91S
MANASSAS*      CLOUDY    53  51  93 S5        29.90F
LEESBURG*      CLOUDY    55  54  94 MISG      29.90S
WINCHESTER     CLOUDY    55  48  76 SW6       29.87S
FRONT ROYAL*   CLOUDY    55  50  82 S5        29.87S
LURAY*         MOCLDY    55  52  88 SW5       29.89S
$$

VAZ048-049-060>072-079>083-230600-
CENTRAL AND SOUTH CENTRAL VIRGINIA

CITY           SKY/WX    TMP DP  RH WIND       PRES   REMARKS
RICHMOND       CLOUDY    54  53  97 SW3       29.93S FOG
CHESTERFIELD*  CLOUDY    54  39  58 CALM      29.94F
PETERSBURG*    CLOUDY    51  51  97 CALM      29.93F FOG
HANOVER        CLOUDY    55  50  83 S5        29.94F
TAPPAHANNOCK*  CLOUDY    56  56  99 S3        29.93F
QUINTON*       CLOUDY    54  54 100 SE3       29.92F
CHARLOTTSVILLE CLOUDY    55  53  93 S6        29.91R
GORDONSVILLE*  CLOUDY    55  54  96 SW7       29.91R
ORANGE*        CLOUDY    54  52  94 CALM      29.92S
LOUISA*        CLOUDY    57  57 100 S3        29.91S
BUMPASS*       CLOUDY    55  55 100 S7        29.92S
FARMVILLE*     CLOUDY    54  54 100 CALM      29.92F FOG
CREWE*         MOCLDY    52  52 100 CALM      29.93F VSB 1/2
FORT PICKETT*  CLOUDY    53  50  88 CALM      29.93F VSB 3/4
CHASE CITY*    FAIR      49  48  95 CALM      29.94S
CLARKSVILLE*   CLOUDY    50  50 100 CALM      29.93F VSB 1/2
SOUTH HILL*    CLOUDY    51  51 100 CALM      29.99S VSB 1/2
LAWRENCEVILLE*   N/A     51  50  97 MISG      29.94S
EMPORIA*       CLOUDY    50  50 100 CALM      29.95S FOG
$$

VAZ088>098-230600-
SOUTHEAST VIRGINIA

CITY           SKY/WX    TMP DP  RH WIND       PRES   REMARKS
NORFOLK        CLOUDY    58  50  75 S5        29.93F
VIRGINIA BEACH CLOUDY    57  49  74 S5        29.93F
NORFOLK NAVAL  NOT AVBL
WEST POINT*    CLOUDY    55  54  96 S3        29.94S
SALUDA*        CLOUDY    55  54  96 S6        29.92F
NEWPORT NEWS   CLOUDY    55  52  89 CALM      29.93F
LANGLEY AFB    CLOUDY    56  53  89 S6        29.93F
FORT EUSTIS    CLOUDY    53  51  92 CALM      29.91F
WILLIAMSBURG*  CLOUDY    55  55 100 CALM      29.94S
HR EXEC AP*    FAIR      55  48  76 S5        29.93S
FRANKLIN*      DRIZZLE   54  53  96 CALM      29.94F
US460-WAKEFLD  CLOUDY    53  52  96 CALM      29.93F
$$

VAZ020-022-025-037-045-230600-
WEST CENTRAL AND SOUTHWEST VIRGINIA

CITY           SKY/WX    TMP DP  RH WIND       PRES   REMARKS
STAUNTON*      CLOUDY    52  49  91 S3        29.93S
WAYNESBORO*    CLOUDY    53  50  89 W5        29.92R
HOT SPRINGS VA CLOUDY    50  50 100 W9        29.95S
LYNCHBURG      CLOUDY   N/A N/A N/A MISG      29.94S
DANVILLE       FOG       52  52 100 CALM      29.94S VSB 1/4
SOUTH BOSTON*  CLOUDY    50  49  96 CALM      29.93F VSB 1/4
MARTINSVILLE   FOG       52  51  98 CALM      29.96S VSB 1/4
ROANOKE        FOG       52  52 100 CALM      29.95S VSB 1/4
BLACKSBURG     FOG       46  46 100 CALM      29.97F VSB<1/4
DUBLIN*        FOG       48  48 100 CALM      29.96S VSB 1/4
MARION*        FOG       50  49  97 CALM      29.97F VSB<1/4
HILLSVILLE*    PTCLDY    52  51  95 S3        29.94S
RICHLANDS*     FAIR      52  50  93 SW3       29.94R
WISE*          CLEAR     50  50 100 CALM      29.94F
ABINGDON*      CLEAR     50  50 100 CALM      29.93S FOG
$$

MDZ021>025-VAZ099-100-230600-
SOUTHERN MARYLAND AND THE DELMARVA PENINSULA

CITY           SKY/WX    TMP DP  RH WIND       PRES   REMARKS
PATUXENT RIVER CLOUDY    49  49 100 SE3       29.92S
BAY BRIDGE APT PTCLDY    48  48 100 SE3       29.91S FOG
LEONARDTOWN    CLOUDY    54  52  94 S5        29.93S
DOVER          FOG       48  48 100 S3        29.90S VSB 3/4
GEORGETOWN     CLOUDY    53  51  93 CALM      29.92F
EASTON         MOCLDY    52  50  94 S5        29.95S FOG
CAMBRIDGE      NOT AVBL
SALISBURY      CLOUDY    55  54  96 SW8       29.92F
OCEAN CITY     CLOUDY    54  50  86 S5        29.93F
WALLOPS ISLAND CLOUDY    52  52 100 S9        29.94F
ACCOMACK*      CLOUDY    55  52  92 SE3       29.94S
$$

NCZ012>017-030>032-230600-
NORTH CENTRAL AND EASTERN NORTH CAROLINA

CITY           SKY/WX    TMP DP  RH WIND       PRES   REMARKS
ROANOKE RAPIDS FAIR      54  52  94 CALM      29.94S
RALEIGH        MOCLDY    56  52  86 CALM      29.95R
ELIZABETH CITY CLOUDY    56  51  84 CALM      29.95F
AHOSKIE*         N/A     53  52  95 S3        29.94S
EDENTON*       CLOUDY    56  52  87 CALM      29.95F
CURRITUCK*     CLOUDY    58  51  76 CALM      29.95F
KILL DEVIL HLS NOT AVBL
MANTEO         CLOUDY    58  52  81 CALM      29.95F
CAPE HATTERAS  CLOUDY    61  54  77 NE3       29.96S
TARBORO*       NOT AVBL
GOLDSBORO      MOCLDY    60  56  86 CALM      29.91F
WASHINGTON     CLOUDY    57  52  82 CALM      29.95S
GREENVILLE     MOCLDY    57  52  82 S5        29.96S
NEW BERN       CLOUDY    53  52  96 CALM      29.95F
WILMINGTON     CLOUDY    55  53  93 NE5       29.92F
$$

VAZ048-230600-
ELSEWHERE

CITY           SKY/WX    TMP DP  RH WIND       PRES   REMARKS
HARRISBURG PA  PTCLDY    43  42  97 SE3       29.88F
BALTIMORE      CLOUDY    45  44  97 CALM      29.90F
ANNAPOLIS      FOG       47  47 100 S3        29.90F VSB 3/4
ANDREWS AFB    CLOUDY    54  52  94 SW7       29.89F
PHILADELPHIA   CLOUDY    43  40  89 SW5       29.91F
HENDERSON NC     N/A     50  49  98 CALM      29.94S FOG
GREENSBORO     CLOUDY    54  54 100 CALM      29.93S FOG
ROCKY MOUNT    CLOUDY    54  53  97 CALM      29.94S
$$

VAZ100-230600-
MARINE

STATION/POSITION TIME  TEMP    WIND        PRES    WAVE   SWELL
                       AIR SEA DIR/SP/G            HT/PER HT/PER
                 (UTC) (F)     (DEG/KT/KT) (MB)    (FT/S) (FT/S)
CAPE MAY NJ      0448   49 42  170/  4/  7 1012.8F
LEWES DE         0436   54 43  200/  2/  3 1013.1F
OCEAN-CITY-INLET 0436   47 45  210/  7/  9 1014.0F
WACHAPREAGUE VA  0448   52 52  200/  4/  4 1013.8F
THOMAS POINT MD  0500   46 41  170/  6/  7   N/A
GOOSES REEF MD   0500   46 44  170/  8/  8 1013.5    1
COVE POINT MD    0448   46     190/  8/  8 1013.6F
SOLOMONS ISLAND  0436   48 44  100/  6/  6   N/A
BISHOPS HEAD MD  0448   49 47  160/  8/  9 1013.6F
PINEY POINT MD   0442          130/  3/  3   N/A
POTOMAC MD       0450   48     160/  2/  2 1012.3F
CAMBRIDGE MD     0448   52 42  190/  4/  5 1012.4F
LEWISETTA VA     0448   56 44  230/  5/  5 1012.9S
RAPPAHANNOCK LGT 0442          130/ 10/ 10 1014.0F
YORK RVR RNG VA  0448   51     170/ 10/ 11 1012.8F
YORKTOWN VA      0448   53 48   CALM  /  1 1013.2F
JAMESTOWN VA     0450   54      70/  2/  2   N/A
DOMINION TERM VA 0448   56     140/  5/  5 1013.6F
KIPTOPEKE VA     0442      47  150/  9/ 10   N/A
CHES BAY BRIDGE  0448   56 47  180/  8/  8 1013.6F
CAPE HENRY VA    0448   56     170/  6/  8   N/A
WILLOUBY STN VA  0448   58     170/  8/  9 1014.4F
S CRANEY ISL VA  0448   56     180/  7/  8 1013.4F
CAPE HENRY BUOY  0442      49                N/A     3/ 9   2/11
OFFSHORE WE BUOY 0451      48                N/A     3/ 8   2/11
64NM E OF VA BCH 0450   58 53  160/  6/  8 1014.0F   3/11   3/11
DUCK PIER NC     0448   54 48  160/ 10/ 11 1013.4F
44100 DUCK FRF   0405      48                N/A     3/ 8   2/11
44056 DUCK FRF   0430      50                N/A     3/ 8   2/11
OREGON INLET NC  0442   56 54  130/  2/  3 1014.2F
HATTERAS NC      0442   60 61   20/  2/  3 1014.0F
DIAMOND SHLS NC  0450   69 74  160/ 12/ 17 1014.2F   3/10   2/10
CAPE LOOKOUT NC  0400   65     150/ 10/ 12 1013.7F
$$



USA.gov is the U.S. government's official web portal to all federal, state and local government web resources and services.